Home   Weather   Verden (Aller)   Past weeks

Flag for Germany Past Weather in Verden (Aller), Lower Saxony, Germany — Yesterday and Last 2 Weeks

Now
59 °F

Passing clouds.


Feels Like: 60 °F
Forecast: 61 / 68 °F
Wind: 3 mph from East

Location: Bremen Airport

Current Time: Aug 17, 2017 at 6:03:57 am

Latest Report: Aug 17, 2017 at 5:20 am


Visibility: N/A

Pressure: 30.04 "Hg

Humidity: 82%

Dew Point: 54 °F

Location of Verden (Aller)Location

Past Weather in Verden (Aller) — Graph

°F

Verden (Aller) Temperature Yesterday

Maximum temperature yesterday: 73 °F (at 3:20 pm)
Minimum temperature yesterday: 59 °F (at 3:20 am)
Average temperature yesterday: 66 °F

High & Low Weather Summary for the Past Weeks

 TemperatureHumidityPressure
High79 °F (Aug 15, 12:20 pm)100% (Aug 2, 4:20 am)30.24 "Hg (Aug 2, 4:20 am)
Low45 °F (Aug 14, 2:20 am)38% (Aug 7, 2:20 pm)29.71 "Hg (Aug 3, 12:58 pm)
Average63 °F77%30.00 "Hg
* Reported Aug 2 4:20 am — Aug 17 4:50 am, Verden (Aller). Weather by CustomWeather, © 2017

Note: Actual official high and low records may vary slightly from our data, if they occured in-between our weather recording intervals... More about our weather records

Advertising

Verden (Aller) Weather History for the Previous 24 Hours

Scroll right to see more
 ConditionsComfort  
Time TempWeatherWind HumidityBarometerVisibility
4:50 am
Thu, Aug 17
57 °FClear.5 mph88%30.04 "Hg10 mi
4:20 am57 °FClear.3 mph88%30.07 "Hg10 mi
3:50 am57 °FClear.6 mph88%30.07 "Hg10 mi
3:20 am57 °FClear.2 mph88%30.09 "Hg10 mi
2:50 am57 °FClear.1 mph88%30.09 "Hg10 mi
1:50 am59 °FClear.7 mph82%30.09 "Hg10 mi
1:20 am59 °FClear.6 mph82%30.12 "Hg10 mi
12:50 am59 °FClear.5 mph88%30.12 "Hg10 mi
12:20 am61 °FClear.6 mph83%30.12 "Hg10 mi
11:50 pm
Wed, Aug 16
61 °FClear.5 mph83%30.12 "Hg10 mi
11:20 pm61 °FClear.5 mph83%30.12 "Hg10 mi
10:50 pm61 °FClear.5 mph77%30.15 "Hg10 mi
10:20 pm63 °FClear.5 mph77%30.15 "Hg10 mi
9:50 pm63 °FClear.3 mph77%30.15 "Hg10 mi
8:50 pm68 °FClear.3 mph60%30.15 "Hg10 mi
8:20 pm68 °FSunny.5 mph60%30.15 "Hg10 mi
7:50 pm68 °FSunny.3 mph60%30.15 "Hg10 mi
7:23 pm70 °FPassing clouds.3 mph57%30.15 "HgN/A
7:20 pm70 °FSunny.3 mph53%30.15 "Hg10 mi
7:03 pm70 °FSunny.3 mph57%30.15 "Hg10 mi
6:50 pm70 °FSunny.5 mph53%30.15 "Hg10 mi
6:26 pm72 °FPassing clouds.3 mph57%30.15 "HgN/A
5:50 pm73 °FSunny.1 mph47%30.15 "Hg10 mi
5:20 pm73 °FSunny.2 mph47%30.15 "Hg10 mi
4:50 pm73 °FPassing clouds.5 mph47%30.15 "HgN/A
4:20 pm73 °FPassing clouds.6 mph44%30.15 "HgN/A
3:50 pm73 °FPassing clouds.6 mph44%30.15 "HgN/A
3:20 pm73 °FPassing clouds.7 mph44%30.15 "HgN/A
2:50 pm72 °FScattered clouds.7 mph50%30.15 "HgN/A
2:20 pm72 °FScattered clouds.6 mph50%30.15 "HgN/A
1:50 pm72 °FPassing clouds.8 mph53%30.18 "HgN/A
1:20 pm72 °FPassing clouds.9 mph47%30.18 "HgN/A
12:50 pm70 °FPassing clouds.6 mph60%30.18 "HgN/A
12:20 pm70 °FPassing clouds.7 mph60%30.18 "HgN/A
11:50 am68 °FPassing clouds.7 mph69%30.15 "HgN/A
11:20 am68 °FScattered clouds.6 mph69%30.15 "HgN/A
10:50 am68 °FScattered clouds.8 mph69%30.15 "HgN/A
10:20 am64 °FScattered clouds.8 mph78%30.15 "HgN/A
9:50 am66 °FScattered clouds.9 mph83%30.15 "HgN/A
9:20 am64 °FScattered clouds.8 mph88%30.15 "HgN/A
8:50 am63 °FScattered clouds.9 mph94%30.15 "Hg4 mi
8:20 am63 °FScattered clouds.8 mph94%30.12 "Hg4 mi
7:50 am61 °FFog.5 mph100%30.12 "Hg2 mi
7:20 am61 °FFog.3 mph94%30.09 "Hg2 mi
6:50 am59 °FFog.3 mph100%30.09 "Hg2 mi
6:20 am59 °FFog.5 mph100%30.09 "Hg2 mi
Weather by CustomWeather, © 2017

See weather overviewHow to use our weather pages